Time,TemperatureF,DewpointF,PressureIn,WindDirection,WindDirectionDegrees,WindSpeedMPH,WindSpeedGustMPH,Humidity,HourlyPrecipIn,Conditions,Clouds,dailyrainin,SoftwareType,DateUTC
2013-05-21 05:08:00,55.9,52.1,29.60,South,180,10.4,-999.0,87,-99.99,,,0.00,Acu-Link.com,2013-05-21 10:08:00,
2013-05-21 05:24:00,55.6,51.5,29.60,SW,225,3.7,-999.0,86,-99.99,,,0.00,Acu-Link.com,2013-05-21 10:24:00,
2013-05-21 05:39:00,55.2,51.1,29.60,NW,315,4.2,-999.0,86,-99.99,,,0.00,Acu-Link.com,2013-05-21 10:39:00,
2013-05-21 05:55:00,55.8,50.7,29.61,NW,315,4.2,-999.0,83,-99.99,,,0.00,Acu-Link.com,2013-05-21 10:55:00,
2013-05-21 06:10:00,56.3,51.2,29.60,West,270,9.9,-999.0,83,-99.99,,,0.00,Acu-Link.com,2013-05-21 11:10:00,
2013-05-21 06:25:00,56.1,51.0,29.60,WSW,247,5.8,-999.0,83,-99.99,,,0.00,Acu-Link.com,2013-05-21 11:25:00,
2013-05-21 06:41:00,55.9,49.8,29.60,SW,225,3.2,-999.0,80,-99.99,,,0.00,Acu-Link.com,2013-05-21 11:41:00,
2013-05-21 06:57:00,55.8,49.7,29.62,WSW,247,3.7,-999.0,80,-99.99,,,0.00,Acu-Link.com,2013-05-21 11:57:00,
2013-05-21 07:12:00,56.7,50.6,29.66,WSW,247,2.7,-999.0,80,-99.99,,,0.00,Acu-Link.com,2013-05-21 12:12:00,
2013-05-21 14:17:00,62.2,50.3,29.66,WNW,292,4.7,-999.0,65,-99.99,,,0.00,Acu-Link.com,2013-05-21 19:17:00,
2013-05-21 15:49:00,65.5,52.6,29.66,WNW,292,6.3,-999.0,63,-99.99,,,0.00,Acu-Link.com,2013-05-21 20:49:00,
2013-05-21 16:10:00,65.5,52.6,29.64,South,180,4.2,-999.0,63,-99.99,,,0.00,Acu-Link.com,2013-05-21 21:10:00,
2013-05-21 16:26:00,64.8,52.8,29.65,WSW,247,3.2,-999.0,65,-99.99,,,0.00,Acu-Link.com,2013-05-21 21:26:00,
2013-05-21 16:41:00,64.6,53.0,29.65,West,270,4.7,-999.0,66,-99.99,,,0.00,Acu-Link.com,2013-05-21 21:41:00,
2013-05-21 16:57:00,64.2,52.6,29.63,SE,135,13.0,-999.0,66,-99.99,,,0.00,Acu-Link.com,2013-05-21 21:57:00,
2013-05-21 17:12:00,63.7,52.5,29.64,West,270,4.2,-999.0,67,-99.99,,,0.00,Acu-Link.com,2013-05-21 22:12:00,
2013-05-21 17:28:00,63.0,52.3,29.64,SW,225,4.2,-999.0,68,-99.99,,,0.02,Acu-Link.com,2013-05-21 22:28:00,
2013-05-21 17:46:00,63.5,53.1,29.64,WNW,292,7.3,-999.0,69,-99.99,,,0.02,Acu-Link.com,2013-05-21 22:46:00,
2013-05-21 18:01:00,63.1,53.5,29.64,WNW,292,2.2,-999.0,71,-99.99,,,0.02,Acu-Link.com,2013-05-21 23:01:00,
2013-05-21 18:18:00,62.8,53.3,29.64,SSE,157,4.2,-999.0,71,-99.99,,,0.02,Acu-Link.com,2013-05-21 23:18:00,
2013-05-21 18:34:00,62.8,53.3,29.65,North,0,7.8,-999.0,71,-99.99,,,0.02,Acu-Link.com,2013-05-21 23:34:00,
2013-05-21 19:00:00,62.8,53.3,29.64,North,0,4.7,-999.0,71,-99.99,,,0.02,Acu-Link.com,2013-05-22 00:00:00,
2013-05-21 19:18:00,63.0,53.4,29.64,NNE,22,2.7,-999.0,71,-99.99,,,0.02,Acu-Link.com,2013-05-22 00:18:00,
2013-05-21 19:35:00,62.8,53.3,29.64,West,270,1.7,-999.0,71,-99.99,,,0.02,Acu-Link.com,2013-05-22 00:35:00,
2013-05-21 20:23:00,62.8,53.6,29.66,North,0,2.7,-999.0,72,-99.99,,,0.02,Acu-Link.com,2013-05-22 01:23:00,
2013-05-21 20:39:00,59.9,52.7,29.67,WSW,247,3.2,-999.0,77,-99.99,,,0.02,Acu-Link.com,2013-05-22 01:39:00,
2013-05-21 20:54:00,59.2,52.3,29.67,South,180,2.2,-999.0,78,-99.99,,,0.02,Acu-Link.com,2013-05-22 01:54:00,
2013-05-21 21:12:00,58.3,51.8,29.66,East,90,3.2,-999.0,79,-99.99,,,0.02,Acu-Link.com,2013-05-22 02:12:00,
2013-05-21 21:31:00,57.0,51.6,29.66,East,90,1.1,-999.0,82,-99.99,,,0.02,Acu-Link.com,2013-05-22 02:31:00,
2013-05-21 21:56:00,57.0,51.6,29.68,West,270,6.3,-999.0,82,-99.99,,,0.02,Acu-Link.com,2013-05-22 02:56:00,
2013-05-21 22:48:00,54.5,50.1,29.68,West,270,2.2,-999.0,85,-99.99,,,0.02,Acu-Link.com,2013-05-22 03:48:00,
2013-05-21 23:09:00,54.0,49.9,29.69,West,270,2.2,-999.0,86,-99.99,,,0.02,Acu-Link.com,2013-05-22 04:09:00,
2013-05-21 23:32:00,54.0,49.9,29.70,SW,225,2.2,-999.0,86,-99.99,,,0.02,Acu-Link.com,2013-05-22 04:32:00,
2013-05-21 23:48:00,54.5,50.4,29.70,South,180,4.2,-999.0,86,-99.99,,,0.02,Acu-Link.com,2013-05-22 04:48:00,